Hourly Data Report for August 17, 2020

LYTTON RCS
BRITISH COLUMBIA
Current Station Operator: ECCC - MSC

50°13'28.000" N
121°34'55.000" W
225.00 m
1114746
71765
VLY

Download Data

Hourly Data (August 2020)
Hourly Data Report for August 17, 2020
TIME Temp Definition
°C
Dew Point Definition
°C
Rel Hum Definition
%
Wind Dir Definition
10's deg

Wind Spd Definition
km/h
Visibility Definition
km
Stn Press Definition
kPa
Hmdx Definition


Wind Chill Definition


Weather Definition


00:00 30.0 10.1 29 18 18   98.56 31   LegendNANA
01:00 28.6 10.2 32 16 11   98.58 30   LegendNANA
02:00 26.5 10.6 37 19 4   98.59 28   LegendNANA
03:00 25.2 10.7 40 15 5   98.56 27   LegendNANA
04:00 25.5 11.4 41 17 8   98.55 27   LegendNANA
05:00 25.8 11.0 39 17 19   98.60 28   LegendNANA
06:00 25.2 11.3 42 17 16   98.65 27   LegendNANA
07:00 25.1 11.6 43 16 16   98.70 27   LegendNANA
08:00 27.1 11.4 37 16 25   98.73 29   LegendNANA
09:00 29.3 11.2 32 18 32   98.71 31   LegendNANA
10:00 32.9 11.4 27 18 28   98.70 35   LegendNANA
11:00 34.4 10.7 24 17 34   98.68 36   LegendNANA
12:00 36.0 10.0 21 17 32   98.68 37   LegendNANA
13:00 36.1 8.3 18 18 35   98.66 37   LegendNANA
14:00 37.1 7.7 17 18 28   98.63 37   LegendNANA
15:00 37.1 6.7 16 18 27   98.58 37   LegendNANA
16:00 36.4 6.7 16 18 27   98.55 36   LegendNANA
17:00 35.4 6.0 16 18 32   98.56 35   LegendNANA
18:00 32.9 4.9 17 19 20   98.58 32   LegendNANA
19:00 31.4 5.1 19 21 9   98.61 31   LegendNANA
20:00 30.2 6.1 22 18 8   98.66 30   LegendNANA
21:00 28.9 6.9 25 16 9   98.65 29   LegendNANA
22:00 27.6 7.3 28 17 17   98.66 28   LegendNANA
23:00 27.3 9.5 33 20 22   98.68 28   LegendNANA

Notes on Data Quality.

Legend

  • E = Estimated
  • M = Missing
  • NA = Not Available*
  • [empty] = Indicates an unobserved value
Date modified: